Location: ?????????
(55.6553°N, 38.9075°E)
Time: 06:04:23
(UTC+00:00)

NOSS 3-2 (C) - Pass Details

Date: 18 October 2019
Orbit: 819 x 1394 km, 63.4° (Epoch: 19 November)

Event Time Altitude Azimuth Distance (km) Brightness Sun altitude
Exits shadow 00:51:44 37° 302° (WNW) 1,749 4.5 -26.8°
Maximum altitude 00:55:02 78° 224° (SW) 1,258 3.8 -26.4°
Drops below altitude 10° 01:03:14 10° 140° (SE) 3,363 6.5 -25.3°
Sets 01:06:12 0° 139° (SE) 4,380 7.1 -24.9°
